Location: Hungerford
(51.4167°N, 1.5167°W)
Time: 08:11:24
(UTC+00:00)

Cosmos 1048 Rocket - Pass Details

Date: 20 January 2021
Orbit: 744 x 791 km, 74.0° (Epoch: 24 February)

Event Time Altitude Azimuth Distance (km) Brightness Sun altitude
Rises 18:29:52 0° 340° (NNW) 3,199 7.3 -17.4°
Reaches altitude 10° 18:33:12 10° 2° (N) 2,270 6.3 -17.9°
Enters shadow 18:35:13 15° 25° (NNE) 1,941 5.8 -18.2°
